This demonstration page uses our WeatherBlox Daily Observations layout. Learn more.

36.19886, -115.1175

Hourly Observations for June 4, 2018

Temp ( °F °C ) Dew Point ( °F °C ) Humidity (%) Winds ( mph kmh ) Pressure ( in mb ) Visibility ( mi km ) Precip ( " mm )
12:53 am 00:53 Clear 83 28.3 23 -5 11 11 N 3 6 29.77 1008 10 16.09344 0 0
1:53 am 01:53 Clear 81 27.2 28 -2.2 14 14 Calm 29.77 1008 10 16.09344 0 0
2:53 am 02:53 Clear 80 26.7 29 -1.7 15 15 Calm 29.77 1008 10 16.09344 0 0
3:53 am 03:53 Clear 84 28.9 20 -6.7 9 9 Calm 29.77 1008 10 16.09344 0 0
4:53 am 04:53 Clear 77 25 25 -3.9 14 14 WNW 6 9 29.77 1008 10 16.09344 0 0
5:53 am 05:53 Sunny 74 23.3 28 -2.2 18 18 Calm 29.8 1009 10 16.09344 0 0
6:53 am 06:53 Sunny 80 26.7 29 -1.7 15 15 NW 3 6 29.8 1009 10 16.09344 0 0
7:53 am 07:53 Sunny 84 28.9 28 -2.2 13 13 NNW 3 6 29.83 1010 10 16.09344 0 0
8:53 am 08:53 Sunny 90 32.2 19 -7.2 7 7 N 5 7 29.8 1009 10 16.09344 0 0
9:53 am 09:53 Sunny 93 33.9 17 -8.3 6 6 Calm 29.8 1009 10 16.09344 0 0
10:53 am 10:53 Sunny 95 35 22 -5.6 7 7 N 5 7 29.8 1009 10 16.09344 0 0
11:53 am 11:53 Sunny 99 37.2 22 -5.6 6 6 SSE 6 9 29.77 1008 10 16.09344 0 0
12:53 pm 12:53 Sunny 104 40 18 -7.8 4 4 SSE 16 26 29.74 1007 10 16.09344 0 0
1:53 pm 13:53 Sunny 103 39.4 15 -9.4 4 4 SSE 12 19 29.71 1006 10 16.09344 0 0
2:53 pm 14:53 Sunny 106 41.1 11 -11.7 3 3 WSW 14 22 29.68 1005 10 16.09344 0 0
3:53 pm 15:53 Sunny 106 41.1 12 -11.1 3 3 WSW 10 17 29.68 1005 10 16.09344 0 0
4:43 pm 16:43 Sunny 105 40.6 13 -10.6 3 3 SW 17 28 29.47 998 10 16.09344 0 0
4:53 pm 16:53 Sunny 104 40 14 -10 4 4 WSW 14 22 29.65 1004 10 16.09344 0 0
5:53 pm 17:53 Sunny 102 38.9 13 -10.6 4 4 W 17 28 29.65 1004 10 16.09344 0 0
6:53 pm 18:53 Sunny 100 37.8 13 -10.6 4 4 WSW 12 19 29.65 1004 10 16.09344 0 0
7:53 pm 19:53 Sunny 98 36.7 12 -11.1 4 4 WSW 10 17 29.68 1005 10 16.09344 0 0
8:53 pm 20:53 Clear 96 35.6 20 -6.7 6 6 SW 6 9 29.68 1005 10 16.09344 0 0
9:53 pm 21:53 Clear 93 33.9 22 -5.6 7 7 Calm 29.68 1005 10 16.09344 0 0
10:53 pm 22:53 Clear 91 32.8 21 -6.1 8 8 SW 10 17 29.68 1005 10 16.09344 0 0
11:53 pm 23:53 Clear 90 32.2 23 -5 9 9 SW 10 17 29.68 1005 10 16.09344 0 0

Powered by AerisWeather